Location: *
(46.4000°N, 12.6667°E)
Time: 03:40:16
(UTC+00:00)

Envisat - Pass Details

Date: 03 December 2021
Orbit: 764 x 766 km, 98.2° (Epoch: 16 January)

Event Time Altitude Azimuth Distance (km) Brightness Sun altitude
Rises 02:49:41 0° 30° (NNE) 3,243 6.7 -37.9°
Reaches altitude 10° 02:53:03 10° 53° (NE) 2,310 6.1 -37.3°
Maximum altitude 02:55:56 15° 88° (E) 1,974 5.8 -36.8°
Drops below altitude 10° 02:58:48 10° 123° (ESE) 2,299 6.0 -36.4°
Sets 03:02:06 0° 146° (SE) 3,219 6.6 -35.8°
